Location: Unspecified
(51.0950°N, 12.9690°E)
Time: 22:39:39
(UTC+00:00)

CORIOLIS - Pass Details

Date: 28 October 2021
Orbit: 819 x 838 km, 98.7° (Epoch: 01 December)

Event Time Altitude Azimuth Distance (km) Brightness Sun altitude
Rises 16:38:06 0° 168° (SSE) 3,338 7.3 -8.2°
Reaches altitude 10° 16:40:26 10° 171° (S) 2,409 6.6 -8.6°
Maximum altitude 16:45:46 73° 256° (WSW) 858 4.5 -9.4°
Drops below altitude 10° 16:51:09 10° 342° (NNW) 2,428 6.7 -10.2°
Sets 16:53:31 0° 344° (NNW) 3,366 7.4 -10.6°
